Location: Al Mulaqqa?ah
(24.1833°N, 32.8833°E)
Time: 13:12:53
(UTC+00:00)

Cosmos 2341 Rocket - Pass Details

Date: 26 September 2021
Orbit: 969 x 1004 km, 82.9° (Epoch: 20 October)

Event Time Altitude Azimuth Distance (km) Brightness Sun altitude
Rises 16:49:40 0° 173° (S) 3,674 6.9 -16.6°
Reaches altitude 10° 16:52:13 10° 169° (S) 2,733 6.2 -17.1°
Maximum altitude 16:58:20 57° 92° (E) 1,154 4.0 -18.5°
Drops below altitude 10° 17:04:31 10° 15° (NNE) 2,765 6.3 -19.9°
Sets 17:07:06 0° 11° (NNE) 3,720 7.0 -20.5°
